Location: Bli��� Lhota
(48.7570°N, 14.0120°E)
Time: 15:46:16
(UTC+00:00)

SPOT 1/Viking Rocket - Pass Details

Date: 18 September 2020
Orbit: 777 x 794 km, 98.5° (Epoch: 23 October)

Event Time Altitude Azimuth Distance (km) Brightness Sun altitude
Exits shadow 19:33:46 42° 66° (ENE) 1,121 4.0 -23.3°
Drops below altitude 10° 19:38:35 10° 358° (N) 2,352 6.4 -24.0°
Sets 19:41:00 0° 351° (N) 3,282 7.4 -24.3°
